Temp
73 68 67 67 66 66 65 65 65 65 65 65 65 65 65 65 65 64 63 64 63 62 62 62 62 61 59 58 57 56 54 54 53 52 54 57 57 58 60 60 62 62 64
73 68 69 68 67 66 65 66 65 65 65 66 65 65 65 65 64 64 63 64 63 62 62 61 61 63 60 58 57 56 55 54 54 53 54 54 56 60 59 57 61 65 64
70 69 67 66 65 66 67 67 66 65 65 65 65 64 64 65 64 64 63 63 63 63 63 61 61 60 59 58 58 57 56 57 55 55 56 61 56 59 58 58 58 60 63
70 70 67 67 67 69 69 68 67 66 66 67 65 65 65 65 65 64 64 63 63 63 62 61 61 60 60 59 58 58 58 56 55 54 57 59 57 58 58 56 57 62 62
72 72 69 68 67 68 69 69 68 68 68 68 65 65 65 65 68 64 64 63 63 62 62 61 61 63 66 62 60 59 57 57 56 55 57 57 55 55 56 59 58 60 61
71 72 68 66 66 68 68 69 69 69 68 66 64 65 64 68 66 65 66 63 62 61 60 60 60 64 63 64 65 64 61 57 56 55 56 54 54 56 57 58 57 55 54
72 70 67 67 67 67 69 69 69 69 67 66 64 64 64 65 62 63 65 61 60 59 58 57 58 61 62 60 61 62 62 62 62 57 54 54 53 56 58 56 56 55 56
69 67 68 66 68 68 70 70 69 68 66 65 63 64 63 64 59 61 62 61 59 58 58 58 57 57 58 58 57 55 55 55 55 57 55 56 56 58 59 58 56 56 57
68 67 67 68 67 68 67 69 71 65 64 64 63 62 63 63 61 59 60 59 58 58 57 58 57 56 58 59 55 53 52 53 58 59 59 58 59 59 60 57 55 54 53
68 67 67 67 67 65 67 68 66 65 65 63 63 63 61 62 59 57 57 57 56 55 57 58 58 55 56 54 52 50 51 51 52 55 56 56 58 58 60 58 56 53 53
65 65 65 65 65 65 65 64 65 63 62 61 62 62 62 61 60 56 55 56 56 56 55 56 54 55 52 52 51 50 50 51 52 53 54 55 56 56 57 57 57 55 53
63 62 61 62 63 63 62 61 63 63 61 60 60 60 60 57 54 54 53 53 57 53 53 52 52 51 49 51 51 52 52 53 50 52 51 51 52 53 55 56 57 57 58
62 61 60 61 62 63 61 60 60 61 60 59 58 58 56 55 53 52 52 53 54 52 51 51 51 49 50 51 53 53 52 48 49 49 49 51 52 53 54 55 57 58 59
61 60 61 61 61 61 61 60 61 60 59 58 58 56 53 51 51 51 51 49 52 51 51 50 51 52 52 53 51 47 47 47 48 46 48 51 52 52 52 54 54 54 56
61 61 60 60 59 58 54 54 57 52 53 56 55 54 52 50 50 47 46 48 47 46 46 50 48 47 47 45 43 44 44 45 44 45 46 48 49 50 51 52 53 53 53
59 59 60 59 59 56 52 49 45 44 43 43 45 49 47 47 46 44 42 42 41 43 49 45 44 42 41 40 40 41 42 45 44 44 46 47 46 47 49 50 51 51 52
57 58 58 58 56 53 53 50 49 47 43 41 43 44 46 46 44 42 41 41 42 46 44 42 41 40 40 39 39 39 40 42 43 43 43 45 46 45 48 48 49 50 50
58 56 58 58 56 53 52 52 52 49 47 47 43 44 44 45 44 44 45 47 47 47 41 40 40 39 39 38 38 38 39 41 42 43 44 45 44 43 45 46 47 48 49
58 59 56 57 56 54 53 53 52 49 48 47 46 45 43 42 44 44 45 46 44 46 41 40 40 39 38 38 37 37 38 38 39 39 41 42 43 42 42 45 46 48 48
57 58 56 56 56 54 55 54 51 51 48 47 47 47 46 46 45 45 44 44 43 42 41 40 40 38 38 37 36 35 36 36 36 36 38 40 42 43 44 43 45 46 47
55 56 57 55 53 53 52 52 52 51 50 49 47 46 45 46 44 43 43 42 43 42 41 40 39 37 35 34 33 33 34 35 35 35 36 38 40 40 43 45 47 49 47
56 55 54 54 53 53 54 51 51 50 50 50 48 47 42 48 44 43 43 43 43 42 41 39 37 35 34 33 32 33 32 33 33 34 36 38 39 40 42 44 45 48 49
54 55 54 53 53 52 51 51 51 50 50 50 50 50 47 48 43 42 43 43 42 40 39 38 36 34 32 31 31 32 32 31 31 32 34 37 38 39 39 40 42 42 44
54 54 54 53 52 51 51 51 51 48 49 49 50 48 50 46 43 43 43 42 41 40 39 37 36 35 33 31 31 31 31 31 31 32 35 37 38 39 39 39 40 42 42
52 52 51 50 49 49 49 49 49 48 49 49 49 49 45 46 43 43 43 41 40 39 38 37 35 36 35 34 33 33 33 33 34 35 36 38 39 40 39 38 39 40 42
53 54 56 52 49 48 47 47 47 47 47 48 47 44 45 45 44 43 42 41 39 39 38 36 36 37 37 36 35 34 31 33 34 33 36 37 37 38 38 39 40 40 40
MSLP
1010.32 1011.08 1011.77 1012.36 1012.91 1013.53 1013.81 1014.15 1014.50 1014.80 1015.12 1015.41 1015.48 1015.82 1016.01 1016.09 1016.15 1016.27 1016.40 1016.46 1016.59 1016.58 1016.60 1016.58 1016.60 1016.53 1016.75 1016.86 1016.94 1017.03 1017.19 1017.37 1017.39 1016.48 1015.94 1015.10 1014.76 1014.33 1013.92 1013.43 1013.00 1012.53 1011.75
1009.48 1010.40 1011.07 1011.65 1012.50 1013.20 1013.66 1013.73 1013.88 1014.30 1014.54 1014.90 1015.16 1015.45 1015.65 1015.81 1015.85 1015.91 1015.93 1015.85 1015.95 1016.06 1016.14 1016.25 1016.08 1015.99 1016.22 1016.36 1016.52 1016.57 1016.57 1016.47 1016.69 1016.15 1015.58 1015.21 1014.83 1014.10 1013.66 1013.14 1012.45 1011.76 1011.27
1008.74 1009.59 1010.57 1011.40 1012.10 1012.48 1012.74 1013.14 1013.53 1013.83 1014.09 1014.60 1014.78 1014.94 1015.14 1015.35 1015.43 1015.40 1015.46 1015.52 1015.52 1015.43 1015.41 1015.58 1015.54 1015.62 1015.63 1015.76 1016.06 1016.04 1015.89 1015.81 1015.92 1015.93 1015.14 1014.61 1014.32 1013.68 1013.09 1012.48 1011.83 1011.16 1010.45
1007.78 1008.72 1009.55 1010.14 1010.86 1011.47 1011.99 1012.53 1012.98 1013.35 1013.77 1013.97 1014.23 1014.30 1014.51 1014.79 1014.94 1014.91 1014.97 1014.96 1014.94 1014.87 1014.86 1015.05 1015.08 1015.15 1015.00 1014.99 1015.28 1015.25 1015.16 1015.13 1015.08 1015.21 1014.77 1014.19 1013.81 1012.91 1012.62 1011.99 1010.94 1010.39 1009.44
1006.81 1007.61 1008.36 1009.20 1010.13 1011.01 1011.06 1011.53 1012.32 1012.84 1012.91 1013.55 1013.54 1013.73 1013.92 1014.34 1014.39 1014.44 1014.58 1014.69 1014.57 1014.46 1014.44 1014.42 1014.41 1014.59 1014.38 1014.45 1014.40 1014.49 1014.62 1014.52 1014.48 1014.35 1014.01 1013.47 1013.00 1012.56 1012.01 1011.30 1010.45 1009.57 1008.66
1005.92 1006.22 1008.22 1009.99 1010.86 1011.22 1010.94 1010.91 1011.46 1012.12 1012.60 1012.86 1013.18 1013.33 1013.53 1013.91 1013.94 1014.00 1014.08 1014.27 1014.29 1014.34 1014.45 1014.36 1014.18 1014.06 1013.78 1013.50 1013.34 1013.56 1013.61 1013.58 1013.62 1013.49 1013.22 1013.06 1012.32 1011.76 1011.19 1010.95 1010.14 1009.14 1007.15
1005.30 1006.46 1007.68 1008.49 1009.93 1010.24 1010.71 1010.84 1010.66 1011.05 1012.08 1012.45 1012.56 1013.16 1013.50 1013.69 1013.69 1013.42 1013.59 1013.62 1013.95 1014.08 1014.30 1014.27 1014.07 1013.66 1013.51 1013.36 1013.03 1013.05 1013.03 1012.86 1012.82 1012.66 1012.58 1012.13 1011.79 1011.18 1010.61 1009.99 1009.44 1008.62 1007.15
1005.26 1006.43 1007.28 1007.24 1008.94 1009.57 1009.55 1009.89 1010.16 1010.74 1011.22 1012.11 1012.42 1012.63 1012.98 1013.44 1013.05 1012.79 1013.49 1013.33 1013.32 1013.68 1013.74 1013.75 1013.69 1013.23 1012.92 1012.99 1013.03 1012.85 1012.80 1012.64 1012.30 1012.08 1011.84 1011.29 1010.94 1010.47 1010.02 1009.19 1008.40 1007.02 1005.62
1004.72 1005.95 1006.64 1007.39 1008.54 1008.47 1008.73 1009.03 1009.58 1010.52 1011.19 1011.77 1011.82 1012.29 1012.60 1012.81 1012.25 1012.42 1013.01 1012.86 1012.99 1013.00 1013.21 1013.37 1013.16 1012.91 1012.69 1012.78 1012.98 1012.93 1012.75 1012.44 1011.82 1011.41 1011.07 1010.65 1010.11 1009.38 1008.72 1008.28 1007.14 1005.75 1003.69
1004.73 1005.66 1006.43 1007.13 1007.40 1008.07 1008.74 1009.43 1009.94 1010.33 1010.75 1011.39 1011.33 1011.47 1011.81 1012.16 1012.24 1012.32 1012.65 1012.57 1012.74 1012.88 1012.82 1013.04 1012.62 1012.55 1012.62 1012.83 1013.19 1013.05 1012.81 1012.32 1011.80 1011.03 1010.56 1009.86 1009.35 1008.50 1007.78 1007.30 1006.01 1004.23 1002.94
1005.34 1005.96 1006.38 1007.19 1007.88 1008.35 1008.97 1009.65 1010.43 1011.30 1011.08 1011.23 1011.55 1011.54 1011.31 1011.88 1011.81 1012.05 1012.34 1012.28 1012.45 1012.50 1012.80 1013.03 1012.48 1012.20 1012.68 1013.05 1013.20 1013.13 1012.54 1012.06 1011.52 1011.02 1010.32 1009.63 1008.88 1007.97 1006.91 1005.98 1004.87 1003.39 1001.57
1005.59 1006.42 1006.99 1007.59 1008.10 1008.57 1009.02 1009.25 1009.09 1010.64 1011.16 1011.11 1010.83 1010.99 1011.15 1011.14 1011.47 1011.80 1012.21 1012.40 1012.51 1012.38 1012.77 1012.96 1012.25 1012.30 1012.87 1013.33 1013.25 1012.85 1012.22 1011.83 1011.50 1011.02 1010.39 1009.56 1008.76 1007.69 1006.34 1004.94 1003.17 1001.32 999.48
1005.90 1006.74 1007.45 1008.18 1008.21 1008.27 1008.37 1008.91 1009.06 1010.16 1011.18 1010.99 1011.08 1011.04 1011.07 1011.47 1011.72 1011.97 1012.49 1012.54 1012.37 1012.43 1012.81 1012.59 1012.33 1012.57 1013.20 1013.24 1012.92 1012.44 1012.07 1011.83 1011.60 1011.11 1010.44 1009.55 1008.71 1007.59 1006.15 1004.58 1002.36 1000.44 998.49
1006.49 1007.32 1007.78 1007.97 1007.94 1007.87 1007.34 1008.80 1009.80 1010.27 1011.35 1010.32 1010.53 1011.07 1011.44 1011.66 1012.19 1012.52 1012.51 1012.30 1012.17 1012.75 1012.66 1012.37 1012.38 1013.01 1013.10 1012.94 1012.73 1012.43 1012.09 1011.84 1011.65 1011.32 1010.60 1009.62 1008.55 1007.41 1006.16 1004.82 1002.98 1000.87 999.09
1006.22 1007.27 1007.84 1008.48 1008.88 1008.97 1009.53 1009.28 1010.19 1010.73 1011.30 1010.68 1010.59 1011.03 1011.37 1012.06 1012.52 1012.30 1012.03 1012.21 1012.61 1012.58 1012.44 1012.72 1013.09 1013.25 1013.25 1013.27 1013.17 1012.78 1012.18 1011.87 1011.69 1011.32 1010.69 1009.68 1008.65 1007.60 1006.44 1005.00 1003.56 1001.84 1000.19
1006.74 1007.14 1007.67 1007.50 1007.97 1009.46 1010.02 1010.74 1010.82 1010.89 1011.22 1010.93 1010.50 1010.83 1012.02 1012.22 1011.94 1011.73 1011.96 1012.14 1012.25 1012.30 1012.82 1013.15 1013.43 1013.78 1013.98 1013.80 1013.59 1013.16 1012.65 1012.25 1011.69 1011.30 1010.69 1009.90 1008.97 1007.98 1006.94 1005.69 1004.16 1003.10 1001.24
1005.87 1006.91 1006.71 1007.71 1008.17 1008.81 1009.21 1010.27 1010.91 1011.74 1011.59 1011.25 1011.31 1011.21 1011.16 1011.32 1011.72 1012.18 1011.75 1011.64 1012.08 1012.79 1013.12 1013.46 1013.80 1014.01 1014.17 1014.01 1013.74 1013.51 1013.22 1012.56 1011.77 1011.34 1010.77 1010.07 1009.22 1008.32 1007.39 1006.43 1005.19 1003.62 1002.15
1006.11 1006.10 1006.32 1007.03 1007.78 1008.65 1009.14 1009.81 1010.39 1010.77 1011.12 1011.48 1011.40 1011.58 1011.58 1011.76 1012.03 1012.11 1012.00 1011.99 1012.56 1013.17 1013.41 1013.70 1013.99 1014.07 1014.16 1014.13 1013.88 1013.73 1013.35 1012.78 1012.22 1011.66 1011.09 1010.40 1009.60 1008.85 1007.89 1006.93 1005.94 1004.88 1003.61
1005.66 1005.89 1006.09 1006.52 1007.12 1008.00 1008.83 1009.30 1009.93 1010.59 1010.85 1011.23 1011.72 1011.62 1011.77 1011.86 1012.19 1012.16 1012.21 1012.51 1013.13 1013.59 1013.78 1013.77 1014.00 1014.18 1014.21 1014.06 1013.94 1013.78 1013.60 1013.31 1012.76 1012.20 1011.53 1010.76 1009.93 1009.25 1008.33 1007.50 1006.67 1005.49 1004.36
1005.90 1005.93 1006.29 1006.86 1007.49 1008.10 1008.74 1009.18 1009.71 1010.11 1010.72 1011.10 1011.39 1011.66 1012.03 1012.20 1012.42 1012.60 1012.79 1012.94 1013.21 1013.55 1013.86 1013.92 1013.97 1014.06 1014.09 1014.07 1014.03 1013.95 1013.80 1013.56 1013.10 1012.55 1011.94 1011.19 1010.42 1009.59 1008.88 1008.08 1007.09 1006.18 1005.39
1006.13 1006.40 1006.25 1006.97 1007.49 1008.10 1008.40 1008.86 1009.40 1009.94 1010.47 1010.87 1011.10 1011.43 1011.59 1012.13 1012.46 1012.85 1012.99 1013.22 1013.32 1013.50 1013.74 1013.76 1013.86 1014.13 1014.22 1014.23 1014.22 1014.19 1014.10 1013.87 1013.47 1012.88 1012.31 1011.60 1010.93 1010.22 1009.21 1008.30 1007.51 1006.60 1006.09
1005.93 1006.04 1006.44 1006.99 1007.46 1007.88 1008.32 1008.79 1009.30 1009.74 1010.37 1010.94 1011.38 1011.54 1011.66 1011.91 1012.09 1012.64 1013.06 1012.97 1013.00 1013.17 1013.38 1013.62 1013.97 1014.23 1014.38 1014.42 1014.43 1014.41 1014.34 1014.11 1013.63 1013.13 1012.57 1011.90 1011.14 1010.46 1009.72 1009.04 1008.23 1007.34 1006.76
1006.11 1006.53 1006.81 1007.23 1007.54 1007.99 1008.63 1008.99 1009.30 1009.82 1010.24 1010.47 1011.20 1011.32 1011.42 1011.81 1012.05 1012.19 1012.70 1012.77 1012.85 1013.10 1013.49 1013.78 1014.04 1014.37 1014.53 1014.53 1014.47 1014.45 1014.39 1014.20 1013.87 1013.45 1012.97 1012.26 1011.64 1011.03 1010.45 1009.89 1009.24 1008.50 1007.91
1006.38 1006.61 1006.88 1007.24 1007.68 1008.12 1008.53 1009.03 1009.11 1009.42 1009.68 1009.82 1010.28 1010.59 1010.92 1011.23 1011.65 1012.00 1012.36 1012.61 1012.83 1013.16 1013.43 1013.73 1014.01 1014.25 1014.49 1014.53 1014.45 1014.38 1014.25 1014.02 1013.70 1013.36 1012.96 1012.49 1011.96 1011.37 1010.88 1010.47 1009.88 1009.29 1008.79
1006.67 1006.95 1007.16 1007.40 1007.79 1008.06 1008.39 1008.66 1008.94 1009.03 1009.05 1009.32 1009.73 1010.10 1010.44 1010.88 1011.38 1011.73 1012.07 1012.41 1012.64 1013.03 1013.39 1013.69 1013.91 1014.01 1014.20 1014.29 1014.31 1014.20 1014.04 1013.85 1013.53 1013.19 1012.82 1012.54 1012.18 1011.76 1011.41 1011.19 1010.71 1010.11 1009.63
1006.80 1006.95 1007.12 1007.49 1007.83 1008.09 1008.40 1008.53 1008.66 1008.72 1008.84 1008.99 1009.24 1009.60 1010.03 1010.50 1010.88 1011.30 1011.69 1012.13 1012.51 1012.85 1013.21 1013.54 1013.71 1013.84 1013.98 1014.07 1014.07 1014.11 1013.98 1013.71 1013.40 1013.17 1012.93 1012.77 1012.49 1012.24 1012.00 1011.76 1011.39 1011.07 1010.84
Wind_Speed
15 12 11 9 8 8 7 7 7 6 7 7 7 6 6 6 5 4 5 5 5 5 4 6 7 5 5 4 4 3 4 4 5 4 4 4 5 6 8 8 10 10 10
14 13 12 9 9 8 7 7 7 8 7 7 6 6 6 6 5 6 6 5 6 6 6 6 7 3 7 6 4 7 5 5 4 8 3 3 5 10 8 9 10 9 10
14 15 11 10 9 10 10 8 7 7 7 6 6 7 6 6 6 6 6 6 6 7 6 6 7 6 6 5 7 7 6 5 5 5 7 5 5 7 7 9 9 11 9
15 16 15 15 13 11 10 10 8 7 7 7 7 7 6 6 6 7 6 7 7 6 6 6 7 7 8 7 7 9 7 6 5 5 7 9 7 7 7 9 11 8 11
17 17 18 14 11 10 11 11 9 8 8 7 7 6 6 6 6 7 6 7 6 6 6 6 6 7 12 11 5 8 7 7 6 7 8 9 8 6 8 8 12 12 13
18 20 12 5 4 10 8 9 9 8 8 7 7 7 7 6 9 9 8 6 6 6 6 5 6 9 9 12 13 19 12 7 8 6 7 8 10 8 8 9 11 13 16
16 14 16 17 15 14 13 9 11 11 6 8 7 6 6 6 8 8 9 6 6 5 5 6 7 4 8 6 9 9 10 11 12 6 8 8 7 10 11 12 14 14 17
13 12 13 15 17 11 10 10 10 6 8 6 6 8 3 2 2 12 14 6 5 6 6 6 6 7 6 6 6 5 6 6 7 5 7 10 10 12 13 13 16 17 16
14 14 15 17 14 10 10 11 9 5 4 6 3 2 5 6 9 11 10 6 6 6 4 6 4 6 7 5 4 5 6 7 6 11 14 18 21 24 21 11 12 16 16
11 8 6 5 5 5 5 4 1 3 4 5 6 5 6 6 8 10 8 4 4 3 3 4 5 4 4 1 3 3 5 6 8 12 12 12 14 14 21 13 14 15 14
9 8 8 8 8 7 7 4 2 3 0 2 5 6 4 5 5 4 8 4 3 2 2 3 4 2 0 3 2 4 5 6 9 8 9 9 10 10 10 11 16 15 16
11 10 8 6 5 6 10 7 12 5 8 8 6 4 4 1 4 2 5 2 2 1 3 3 2 1 3 5 4 6 7 8 4 6 7 9 10 10 12 14 20 19 15
11 9 7 5 4 4 7 5 5 4 6 6 4 4 1 2 3 7 5 4 5 0 2 3 6 5 6 4 5 8 8 4 5 6 8 8 9 11 15 14 20 20 17
11 8 5 5 6 5 3 4 4 7 6 4 4 3 2 3 2 1 0 2 4 1 4 3 3 5 1 2 4 5 4 4 5 6 7 9 9 9 10 11 15 15 11
10 6 5 1 7 4 5 4 3 2 3 3 3 4 4 3 4 4 1 1 0 2 4 2 1 2 3 4 4 5 4 4 4 5 7 8 9 9 9 11 10 15 11
6 6 5 6 3 4 5 4 11 8 2 3 8 6 1 5 5 4 5 6 3 1 2 2 1 3 3 3 4 4 4 7 5 5 6 7 8 8 9 10 10 12 13
6 2 4 5 4 6 5 6 6 2 7 7 8 9 8 7 7 6 6 4 4 6 2 2 1 1 2 3 3 3 4 5 6 4 5 7 7 8 11 10 9 10 12
8 9 5 5 4 5 6 6 5 5 5 3 4 3 6 7 6 5 6 6 4 4 2 2 1 1 0 2 3 3 4 5 5 6 6 7 7 8 9 9 9 9 10
5 4 5 6 6 7 7 7 5 4 4 4 2 2 2 3 5 6 5 2 2 1 1 2 2 1 0 2 3 4 4 4 5 5 6 6 7 6 8 8 8 12 12
3 5 5 4 6 5 5 6 5 5 4 4 4 3 3 3 1 0 1 1 2 2 2 2 2 1 1 2 3 3 4 4 5 5 5 6 7 7 7 8 7 8 8
4 5 8 5 5 5 6 6 4 5 5 4 4 4 7 4 4 3 3 3 3 3 3 3 1 2 2 2 2 3 3 4 4 4 5 5 6 6 7 7 7 7 7
3 3 4 4 4 4 4 4 5 5 4 4 3 3 8 3 4 4 3 3 3 3 3 4 3 3 2 2 1 2 2 4 4 5 5 5 6 6 6 6 8 8 9
4 4 4 4 4 5 5 4 5 5 6 6 6 5 4 3 4 4 4 3 4 4 4 4 4 3 2 2 1 1 1 3 4 4 5 5 5 5 5 4 6 5 7
4 4 5 4 4 4 4 5 5 7 6 6 6 5 5 5 5 5 4 3 4 4 4 4 4 5 4 3 2 1 2 2 3 4 5 5 5 6 5 4 5 7 7
4 3 3 3 4 4 5 4 4 4 5 5 6 6 5 5 5 5 4 5 5 5 5 4 4 5 6 6 4 3 4 5 3 4 3 5 6 7 5 4 5 5 8
3 4 4 4 4 3 3 4 5 5 5 5 5 5 6 7 5 5 5 5 5 5 5 4 5 7 6 4 4 1 3 4 4 4 2 4 5 5 4 6 8 5 6
Wind_Direction
185 177 175 176 171 176 177 183 189 181 187 192 198 207 219 229 241 240 250 260 237 248 242 227 237 216 212 214 210 206 216 185 237 271 249 290 298 287 297 302 297 294 294
185 178 180 170 171 178 193 195 185 194 191 200 196 206 220 231 241 237 252 249 233 241 239 234 250 221 225 224 210 222 222 211 202 267 242 258 254 296 283 287 292 293 292
179 179 172 178 182 193 194 194 194 197 195 198 200 206 219 233 236 244 238 250 245 244 246 233 250 234 242 224 228 232 229 235 217 242 277 283 275 279 287 281 279 281 278
183 181 181 185 197 194 189 198 198 197 191 201 207 211 220 236 236 242 244 243 243 241 246 238 245 237 237 234 237 238 242 235 231 229 267 280 271 277 279 286 292 281 291
187 185 189 184 185 194 187 192 197 197 199 215 204 219 230 231 238 235 244 249 244 254 255 254 250 260 259 242 230 249 233 243 245 247 260 275 272 275 275 288 286 289 292
192 197 152 123 218 211 203 200 185 208 209 197 213 221 224 235 239 239 233 232 238 237 259 288 275 283 273 279 259 249 245 230 240 240 261 257 271 278 284 279 289 294 297
202 163 165 172 187 198 204 207 204 201 190 214 211 224 236 247 278 262 232 223 234 237 248 268 282 273 283 283 286 279 272 270 244 246 248 251 263 275 286 290 286 280 285
194 163 167 162 211 203 192 197 215 188 193 211 215 228 206 292 307 302 280 232 216 235 234 244 255 281 285 287 284 295 292 289 279 262 240 263 269 277 273 275 280 279 276
187 169 176 187 198 189 192 209 214 168 148 202 193 185 177 245 246 267 255 209 218 237 243 256 265 288 297 289 288 304 307 292 287 296 290 280 276 275 274 286 286 294 285
181 163 165 175 186 187 223 266 105 136 170 188 187 193 210 243 249 246 210 182 208 221 253 278 289 279 294 350 291 294 293 285 313 309 300 291 290 287 293 279 289 291 287
117 120 110 103 106 104 99 97 115 313 254 212 217 233 251 246 274 243 186 171 197 228 277 294 284 300 92 323 271 263 251 287 299 298 302 298 294 291 289 290 298 292 285
118 112 106 115 117 121 113 101 74 65 238 208 212 241 223 177 26 89 162 203 157 148 271 260 325 170 237 265 261 289 312 321 299 303 308 305 306 305 303 309 307 302 280
118 122 128 140 131 166 135 146 67 159 199 215 221 232 215 80 75 74 84 93 70 128 260 280 291 207 227 270 320 348 345 331 315 320 311 306 304 301 303 311 320 321 326
109 112 136 142 168 188 118 107 167 193 237 209 195 209 150 133 148 216 195 63 46 332 336 327 172 178 111 355 344 348 341 336 330 315 307 306 303 314 317 320 322 330 326
122 130 120 308 337 38 35 72 134 41 301 207 169 163 141 171 226 198 164 72 157 39 359 78 77 9 10 352 341 337 337 336 334 321 312 313 320 320 321 321 326 329 335
128 156 197 211 146 137 131 91 51 60 343 189 127 121 108 143 133 23 298 249 221 223 100 102 61 17 350 336 339 327 333 332 312 320 314 314 321 325 324 327 329 331 334
149 204 141 194 174 166 143 139 135 29 79 76 115 123 111 118 62 44 28 89 109 127 93 79 97 25 315 330 343 333 308 315 306 323 324 321 324 327 331 331 323 336 335
195 196 170 183 156 155 156 154 146 172 156 141 50 100 109 101 71 82 101 72 66 43 92 141 155 153 346 346 348 334 321 335 337 338 333 331 327 326 327 331 334 333 341
168 167 173 170 157 148 154 157 166 161 153 135 139 58 89 59 59 61 69 97 139 162 158 129 158 158 348 0 349 338 338 338 333 331 331 331 329 329 325 328 330 335 345
158 161 114 127 134 137 157 159 151 162 145 158 159 166 130 91 140 134 38 104 137 157 165 164 194 162 20 20 359 349 347 352 345 340 334 331 327 325 327 325 334 347 353
157 169 138 112 134 159 157 158 154 155 164 169 171 184 174 165 182 193 192 192 186 185 189 193 164 111 70 39 25 21 4 346 339 333 333 330 328 330 331 336 340 353 357
169 144 132 147 143 141 144 148 151 150 154 173 178 186 170 166 162 177 206 200 191 180 150 135 119 114 105 109 102 72 17 350 340 340 335 328 332 340 337 347 349 360 8
121 145 138 140 146 137 145 164 157 168 176 168 178 176 165 179 181 172 203 182 158 143 131 133 138 136 138 138 116 107 48 335 317 313 322 333 340 344 345 344 351 352 2
147 145 148 153 159 167 167 176 181 182 185 171 174 171 179 175 179 183 193 170 154 144 148 154 162 160 162 174 196 237 267 292 296 300 314 333 345 349 1 357 352 4 11
120 128 134 152 170 174 170 177 190 199 191 170 173 179 169 172 178 184 184 172 163 153 175 165 168 174 178 180 187 218 293 311 313 305 334 358 9 11 4 4 356 2 17
96 157 180 178 200 196 200 194 209 195 190 190 183 171 174 184 185 179 178 169 170 180 174 172 185 183 182 188 176 160 305 341 7 355 34 31 25 15 18 18 21 25 20